Wind_Speed
14 15 15 15 15 15 15 14 11 9 8 8 8 8 9 8 6 14 4 16 19 21 23 22 18 19 18 3 4 4 2 5 8 10 7 12 14 6 5 6 2 3 5 10 26
14 15 15 15 15 15 15 12 8 8 8 8 8 9 10 9 2 6 19 19 21 23 27 15 7 10 2 4 3 4 3 7 6 8 11 16 12 10 2 6 8 5 7 10 20
14 15 15 15 15 16 15 11 6 6 6 7 8 10 14 7 2 4 22 19 21 29 24 16 12 5 4 4 4 4 5 5 13 12 13 14 13 5 4 7 6 8 11 5 16
14 16 16 16 15 16 14 8 6 6 6 6 8 11 10 3 2 14 24 20 23 33 19 9 6 6 4 4 4 5 9 14 11 8 7 9 3 5 7 13 8 5 2 3 10
15 16 17 17 16 16 12 6 6 7 8 7 8 11 4 6 5 24 22 22 32 28 13 4 5 4 4 6 6 5 10 9 14 14 14 10 10 10 11 13 9 10 7 2 9
15 17 18 18 15 15 11 5 3 6 10 8 10 8 3 5 19 19 29 33 27 20 12 5 2 5 5 5 2 5 14 21 13 12 8 7 9 5 10 7 9 10 10 4 6
15 16 17 18 14 15 10 5 4 4 3 7 11 8 4 6 26 21 37 36 20 9 3 5 4 1 2 6 5 9 7 10 5 6 4 2 3 6 14 12 14 10 9 16 16
15 16 17 18 13 14 7 5 8 10 4 5 7 3 2 7 24 25 37 36 21 6 4 6 5 2 2 5 7 5 3 6 12 8 5 3 7 7 5 7 10 7 4 9 10
13 15 16 17 12 13 5 1 5 13 2 2 3 2 3 14 30 25 31 24 21 16 4 2 2 1 6 3 4 5 5 9 8 10 5 2 5 5 8 8 9 9 8 10 8
13 14 15 14 12 14 5 5 2 15 5 1 4 3 4 8 22 24 48 23 4 11 5 5 5 2 5 6 6 12 5 5 7 9 14 4 7 7 13 18 12 14 9 6 5
11 12 14 11 11 15 4 6 4 5 12 4 1 2 7 19 6 26 40 12 8 6 6 4 8 8 9 5 4 6 6 7 13 5 10 7 9 14 16 20 19 17 13 12 12
12 11 12 8 7 15 6 7 2 4 5 1 1 3 10 8 6 21 30 7 7 5 8 6 3 5 9 11 6 7 5 6 9 11 5 7 11 10 13 13 14 15 17 18 17
11 11 11 9 2 8 15 7 5 3 5 2 2 3 6 4 4 14 18 7 5 7 6 0 5 8 9 9 12 8 4 6 11 12 4 6 4 17 10 16 22 21 19 18 17
11 8 10 6 2 2 4 3 3 2 5 8 7 6 11 3 6 11 23 2 7 6 7 4 7 8 13 13 8 4 4 15 13 5 2 2 1 17 16 18 24 23 21 20 22
9 7 8 8 2 3 2 2 2 2 4 7 5 4 6 9 5 12 20 7 4 6 4 5 7 9 17 12 7 8 20 13 6 3 1 1 5 10 12 21 25 23 23 22 20
6 6 5 3 5 3 2 3 1 6 3 4 5 7 6 7 7 9 9 9 2 5 5 4 7 5 9 16 4 15 6 4 2 2 3 6 4 8 12 17 22 19 23 21 21
3 4 11 5 2 2 5 1 5 6 3 6 4 6 3 6 7 8 8 12 9 8 9 8 7 8 14 10 5 17 7 4 5 5 2 3 10 3 9 16 16 19 22 21 19
3 3 6 9 3 3 2 5 7 3 2 2 4 4 4 8 5 9 4 7 6 5 2 6 8 8 14 5 9 7 4 3 3 3 4 7 4 3 18 13 13 15 17 17 19
4 4 3 7 3 1 4 6 5 3 2 5 4 5 4 4 3 5 6 5 4 3 3 7 5 5 6 5 7 8 5 3 3 3 2 3 5 1 21 19 22 22 23 23 22
6 4 3 5 4 3 5 4 2 2 2 2 2 3 5 6 6 5 4 3 6 5 2 3 6 2 6 7 7 5 6 4 3 5 5 4 4 7 22 25 24 26 25 24 23
4 3 2 3 3 6 4 3 3 1 0 1 1 2 2 2 1 2 4 2 4 7 3 2 2 8 3 6 6 8 6 5 2 2 1 3 2 5 13 17 21 20 22 21 21
4 1 4 1 4 2 2 5 5 3 1 1 3 2 1 1 2 2 4 4 6 3 2 3 3 4 5 1 1 5 5 4 2 6 2 2 0 5 13 12 15 17 21 20 19
3 1 4 1 3 1 1 4 3 3 1 1 2 1 1 1 4 1 2 1 5 6 6 3 3 5 8 6 5 5 9 7 4 2 3 2 2 7 15 14 15 15 19 19 19
3 2 4 4 0 7 6 4 3 1 1 2 3 2 4 3 3 1 2 2 5 5 10 2 2 5 5 6 1 5 7 10 4 3 5 1 9 10 19 19 17 15 17 17 17
2 2 2 2 2 4 4 5 5 4 0 1 1 2 4 2 4 0 2 4 4 8 4 4 1 1 8 10 3 3 5 8 5 4 2 8 8 9 17 16 13 10 14 18 19
4 4 3 2 3 5 3 4 6 4 5 3 3 4 4 4 6 5 3 2 2 5 4 4 2 5 4 1 2 2 8 7 3 6 3 8 6 18 18 14 14 12 16 18 20
4 3 5 1 2 4 4 6 7 8 1 3 5 4 2 3 4 4 3 2 3 4 3 2 2 3 5 6 4 3 3 3 5 1 4 5 9 15 19 18 13 12 17 17 17
Wind_Direction
4 3 0 1 360 358 356 357 4 20 24 25 19 14 1 345 53 38 345 344 342 340 338 334 333 322 319 264 200 127 216 246 255 267 261 277 293 281 302 282 297 188 239 300 321
0 1 0 360 357 357 355 357 11 23 19 18 6 4 7 7 97 27 351 345 344 343 338 328 310 315 299 279 298 175 214 252 229 248 271 275 272 280 286 292 293 251 235 318 333
358 358 359 359 356 356 356 359 21 16 11 6 6 5 349 345 94 329 350 344 343 344 339 312 327 353 321 349 296 314 252 254 285 267 262 271 271 237 236 277 236 291 301 338 334
358 357 359 357 356 355 358 7 17 13 3 352 357 356 0 19 24 335 336 338 340 336 339 316 339 360 300 307 293 323 259 267 271 260 269 276 259 253 209 258 269 243 258 279 317
358 358 360 357 355 356 358 11 19 21 4 349 348 349 15 39 317 340 342 331 325 335 327 313 359 337 312 295 315 241 275 276 274 282 269 262 250 251 261 263 265 256 197 157 285
357 1 359 356 355 357 357 3 10 29 26 36 21 18 42 75 355 353 343 332 329 326 314 293 227 242 268 263 275 261 297 289 289 274 264 262 261 186 266 258 253 263 200 171 300
356 358 358 355 354 356 355 355 334 306 333 11 2 15 78 201 359 353 352 337 337 317 252 267 214 138 290 289 250 278 298 299 259 273 278 217 275 226 251 249 251 239 181 176 196
354 355 356 354 356 356 358 68 47 29 314 308 335 351 177 343 347 358 356 351 3 23 232 290 233 241 195 293 307 336 35 342 300 308 339 73 300 325 312 257 256 224 235 136 198
351 352 355 357 357 354 346 211 4 1 18 17 19 327 334 333 353 351 352 335 327 351 270 217 91 7 332 331 331 6 298 322 312 333 330 251 303 281 351 40 338 191 182 172 200
349 350 356 0 0 355 338 235 333 33 43 357 0 26 9 314 331 347 349 357 339 338 36 43 44 28 351 6 346 319 333 302 301 318 343 355 314 3 10 29 27 40 40 45 162
347 348 354 0 7 2 38 120 49 2 28 93 229 133 281 320 344 352 346 353 9 47 19 4 41 354 307 2 322 310 319 310 323 302 331 345 24 33 35 31 21 20 15 23 12
342 345 350 359 6 17 57 79 113 145 100 259 350 255 298 328 349 358 1 39 33 15 343 18 357 293 315 334 332 318 310 311 307 319 11 3 53 16 34 31 15 12 10 2 357
341 343 346 349 1 22 71 83 114 117 105 352 4 328 327 17 42 344 15 333 24 23 1 110 276 327 340 334 348 328 253 310 303 314 205 0 68 19 12 12 5 9 360 356 351
343 350 355 5 121 43 51 76 136 105 78 329 346 360 354 349 33 4 6 6 10 355 335 287 310 342 339 350 356 291 248 303 289 331 295 80 45 19 354 2 10 3 356 346 337
348 1 1 35 66 56 7 111 133 80 51 334 333 332 5 66 286 345 5 359 30 315 14 289 318 344 350 333 336 268 314 293 280 256 305 352 81 345 4 3 356 352 347 346 335
0 24 30 31 61 57 104 143 125 43 286 325 334 3 16 27 7 335 6 16 32 352 356 292 294 344 332 312 307 322 328 19 51 351 43 349 98 15 10 346 347 347 349 338 336
48 71 44 47 69 88 139 86 35 94 355 335 339 3 44 350 4 13 2 23 36 11 17 326 319 315 5 340 322 353 17 351 11 17 1 35 64 70 360 358 348 337 342 339 336
123 119 53 45 53 134 129 57 72 249 280 355 0 332 61 10 16 355 23 17 33 67 21 26 336 11 334 5 309 321 53 102 336 347 312 37 28 139 28 359 348 350 343 340 342
154 128 76 19 46 132 79 53 190 218 316 334 321 43 3 11 65 32 22 359 348 31 68 2 294 325 343 338 9 324 34 262 267 246 291 62 357 143 357 355 355 2 351 354 351
159 141 42 5 11 101 71 136 165 31 357 8 65 40 12 349 36 42 359 314 331 10 103 289 297 317 305 355 5 64 306 11 7 18 349 90 58 354 352 351 348 356 354 348 350
153 70 10 351 37 49 101 151 126 137 191 51 144 64 66 39 44 32 284 318 336 325 33 99 116 297 21 15 16 4 11 350 287 1 113 317 66 10 1 347 344 352 347 343 347
137 56 360 71 50 34 95 130 125 174 37 123 98 98 119 47 51 15 18 200 342 356 0 281 156 291 236 29 139 96 354 351 49 330 327 296 7 39 20 346 343 349 344 345 349
112 148 5 119 122 75 109 74 80 133 158 128 112 114 352 102 50 296 3 68 18 20 5 315 347 350 350 355 5 29 2 335 272 271 17 29 339 30 3 354 353 353 342 345 349
101 69 341 46 45 127 136 140 118 29 140 114 123 115 56 53 40 294 328 335 345 9 8 70 95 151 198 225 205 358 335 345 352 56 315 39 307 354 352 348 349 352 343 345 346
43 212 221 190 321 103 99 139 131 169 223 124 85 164 132 85 359 269 345 339 9 355 13 91 113 263 268 266 219 84 346 351 36 2 125 316 310 1 342 334 338 342 343 349 354
138 138 33 69 81 90 1 204 148 157 142 218 152 166 155 154 176 221 143 184 254 332 21 29 304 3 295 65 9 133 23 355 7 360 322 312 323 357 328 328 341 352 354 354 348
144 107 101 254 78 93 206 170 188 133 7 164 154 121 181 212 150 183 200 180 208 147 328 46 23 34 282 347 19 7 324 329 315 82 307 4 315 326 328 331 338 1 360 349 342
Height
838 836 834 831 828 825 823 820 817 816 815 815 814 813 812 812 812 810 809 809 806 802 799 794 790 788 786 784 782 784 796 802 789 784 773 764 764 755 753 751 748 749 747 748 742
838 836 833 830 827 825 822 819 817 817 816 815 814 814 813 812 810 809 810 807 804 801 798 793 790 786 788 785 784 786 794 785 776 773 771 762 760 754 754 753 747 742 741 746 744
839 836 832 829 827 825 822 819 817 817 816 815 814 814 812 811 811 810 807 804 802 798 795 793 789 788 787 786 784 782 784 773 769 765 762 759 756 752 751 751 748 736 735 745 743
838 836 832 829 826 824 821 819 818 816 816 815 813 812 810 810 817 810 807 803 800 796 792 789 790 791 791 790 785 791 776 768 763 759 756 754 751 750 749 739 738 743 738 750 743
837 835 832 829 826 824 821 820 819 818 817 816 814 813 812 816 817 810 806 802 796 791 789 789 791 792 792 790 787 784 773 763 756 753 748 747 749 747 743 737 738 737 738 744 748
837 834 832 829 825 823 821 819 819 819 817 816 815 813 813 822 816 809 804 797 790 788 786 787 788 788 789 786 786 774 770 762 754 746 745 746 743 744 732 732 732 729 733 734 730
836 833 831 828 825 822 821 820 819 818 818 816 816 814 815 819 813 808 800 791 787 785 784 783 784 785 785 786 775 771 775 761 750 743 742 735 739 740 727 725 725 729 731 745 752
835 832 830 827 824 822 821 820 818 817 817 816 816 814 815 813 811 804 797 786 782 782 782 782 782 784 786 782 776 774 775 779 747 743 736 740 743 729 724 723 722 719 721 723 734
834 831 829 825 823 820 819 818 819 817 816 817 816 815 817 811 805 803 799 794 784 780 780 781 782 787 787 791 793 793 791 778 760 746 744 743 743 728 726 726 727 724 725 727 725
833 830 827 824 822 819 817 816 817 816 817 817 818 822 816 817 810 808 795 790 788 782 781 784 792 798 800 801 795 788 787 779 774 754 745 745 743 735 737 730 726 723 726 727 733
832 828 826 824 821 818 816 815 820 821 821 828 829 827 824 817 813 811 800 792 791 792 805 793 805 809 804 789 788 786 784 781 762 751 751 749 749 752 752 751 748 742 739 736 731
831 828 826 823 822 819 816 818 823 824 830 828 828 826 822 819 819 814 807 805 807 813 807 806 808 799 793 786 788 787 784 779 762 752 749 749 756 760 759 765 766 762 751 744 740
830 827 825 822 822 822 821 824 824 824 833 828 828 827 824 821 825 821 817 816 816 814 818 809 799 794 791 789 786 783 780 776 774 754 751 747 753 767 763 767 759 757 756 754 755
829 827 824 822 824 824 826 826 824 824 857 839 832 831 827 821 826 826 823 824 821 825 821 812 798 800 797 790 788 795 771 770 766 764 766 751 747 770 770 770 763 768 763 757 750
827 826 824 821 824 826 829 828 826 826 854 837 835 832 832 834 842 834 830 826 833 831 826 813 811 807 802 793 787 783 768 767 763 766 760 755 777 790 773 772 777 769 765 760 756
827 826 824 823 824 827 826 828 830 849 866 840 841 841 841 843 844 841 840 832 833 834 831 827 816 809 808 794 787 779 774 767 762 763 764 766 775 800 796 800 791 785 780 774 764
825 825 824 823 825 824 825 828 846 857 846 847 853 849 850 856 852 852 860 855 859 867 877 844 819 811 805 797 790 789 800 822 794 797 762 767 789 815 813 809 803 794 787 777 769
823 823 824 823 824 825 826 837 849 857 857 857 855 854 857 862 863 864 864 876 866 880 903 871 846 825 816 813 814 807 817 840 819 794 772 766 793 810 808 815 810 802 794 789 774
824 823 823 822 822 824 831 866 873 865 862 863 859 860 864 863 870 869 879 883 869 875 885 869 853 831 820 817 817 813 833 813 818 795 781 788 800 803 805 808 802 798 793 784 775
823 823 825 823 822 822 843 867 865 863 864 864 861 867 868 873 880 889 894 877 878 867 870 881 870 837 831 821 821 827 822 819 824 831 821 796 810 828 820 813 806 797 796 789 779
823 827 825 823 823 831 862 867 863 863 864 868 871 872 874 884 880 884 894 874 872 871 867 880 887 859 836 845 847 835 848 831 826 818 836 814 821 838 838 830 819 812 807 798 785
822 834 824 823 839 862 868 857 856 865 864 865 868 869 875 874 887 892 882 880 872 871 884 874 894 895 861 843 841 848 852 847 847 832 829 816 828 841 842 838 830 819 813 805 795
824 828 825 823 855 873 859 861 861 865 867 865 868 869 871 874 898 879 876 874 872 874 872 878 904 905 872 865 850 854 855 856 847 839 840 850 829 834 842 840 835 826 819 810 802
824 837 833 832 845 847 859 863 867 867 868 865 867 869 879 879 881 884 879 874 876 873 869 874 906 899 904 886 881 881 877 863 860 867 860 843 845 837 841 840 834 830 824 816 808
822 835 833 851 851 850 855 858 866 870 868 866 868 867 880 906 906 896 884 883 877 877 876 885 902 891 875 868 865 867 877 873 882 865 870 853 852 850 850 845 839 836 830 817 811
821 829 836 848 845 853 862 866 860 865 868 869 873 870 878 896 892 903 895 891 886 883 880 883 901 889 893 854 856 864 871 873 871 868 862 862 849 849 848 846 842 836 829 824 812
812 816 819 847 852 857 859 859 856 861 864 864 866 873 873 876 878 880 882 885 884 895 884 893 895 907 903 871 887 883 887 884 873 879 875 870 863 859 850 845 842 839 834 830 822